• în Republica Moldova
  • Lista ţărilor
  • Pe 7 zile
  • Temperatura apei
  • Hartă satelitară
  • Meteo pe hartă
  • Widget-uri
  • user-avatar
    Intrare

    Meteo pe oră la Townsville

    Astăzi, 10 Decembrie, Luni

    Timp Temperatura Precipitaţii Vânt Presiune Umiditate
    00:00 +26°C° 1.4 mm 8 m/s 749 mmHg 94%
    01:00 +26°C° 1.4 mm 8 m/s 749 mmHg 95%
    02:00 +26°C° 1.4 mm 8 m/s 749 mmHg 95%
    03:00 +26°C° 1.4 mm 8 m/s 749 mmHg 95%
    04:00 +26°C° 0 mm 7 m/s 749 mmHg 94%
    05:00 +26°C° 1.5 mm 7 m/s 749 mmHg 94%
    06:00 +26°C° 1.5 mm 7 m/s 749 mmHg 93%
    07:00 +26°C° 1.5 mm 7 m/s 750 mmHg 93%
    08:00 +26°C° 1.6 mm 7 m/s 750 mmHg 92%
    09:00 +27°C° 1.6 mm 7 m/s 750 mmHg 91%
    10:00 +27°C° 0 mm 7 m/s 750 mmHg 91%
    11:00 +27°C° 1.2 mm 7 m/s 750 mmHg 90%
    12:00 +28°C° 1.2 mm 7 m/s 750 mmHg 88%
    13:00 +29°C° 1.2 mm 7 m/s 750 mmHg 87%
    14:00 +28°C° 0.8 mm 6 m/s 749 mmHg 88%
    15:00 +28°C° 0.8 mm 6 m/s 749 mmHg 88%
    16:00 +28°C° 0 mm 6 m/s 749 mmHg 88%
    17:00 +28°C° 0.5 mm 6 m/s 749 mmHg 90%
    18:00 +27°C° 0.5 mm 6 m/s 749 mmHg 92%
    19:00 +27°C° 0.5 mm 6 m/s 749 mmHg 94%
    20:00 +27°C° 0.8 mm 6 m/s 750 mmHg 94%
    21:00 +27°C° 0.8 mm 6 m/s 750 mmHg 94%
    22:00 +27°C° 0 mm 6 m/s 751 mmHg 95%
    23:00 +27°C° 0.9 mm 6 m/s 751 mmHg 95%

    Mâine, 11 Decembrie, Marţi

    Timp Temperatura Precipitaţii Vânt Presiune Umiditate
    00:00 +27°C° 0.9 mm 6 m/s 751 mmHg 95%
    01:00 +26°C° 0.9 mm 5 m/s 750 mmHg 95%
    02:00 +26°C° 1.1 mm 5 m/s 750 mmHg 95%
    03:00 +26°C° 1.1 mm 5 m/s 750 mmHg 96%
    04:00 +26°C° 1.1 mm 5 m/s 750 mmHg 96%
    05:00 +26°C° 0.9 mm 5 m/s 750 mmHg 95%
    06:00 +27°C° 0.9 mm 5 m/s 751 mmHg 95%
    07:00 +27°C° 0.9 mm 5 m/s 751 mmHg 95%
    08:00 +27°C° 1.1 mm 5 m/s 751 mmHg 92%
    09:00 +28°C° 1.1 mm 5 m/s 751 mmHg 90%
    10:00 +28°C° 1.1 mm 5 m/s 751 mmHg 88%
    11:00 +29°C° 0.9 mm 5 m/s 751 mmHg 85%
    12:00 +29°C° 0.9 mm 5 m/s 750 mmHg 83%
    13:00 +30°C° 0.9 mm 5 m/s 750 mmHg 81%
    14:00 +30°C° 0.1 mm 5 m/s 750 mmHg 80%
    15:00 +30°C° 0.1 mm 5 m/s 749 mmHg 79%
    16:00 +32°C° 0.1 mm 5 m/s 749 mmHg 78%
    17:00 +30°C° 0.4 mm 5 m/s 749 mmHg 82%
    18:00 +29°C° 0.4 mm 4 m/s 749 mmHg 87%
    19:00 +28°C° 0.4 mm 4 m/s 750 mmHg 91%
    20:00 +28°C° 0.7 mm 4 m/s 750 mmHg 92%
    21:00 +27°C° 0.7 mm 3 m/s 751 mmHg 94%
    22:00 +27°C° 0.7 mm 3 m/s 751 mmHg 96%
    23:00 +27°C° 1.2 mm 3 m/s 751 mmHg 96%

    Poimâine, 12 Decembrie, Miercuri

    Timp Temperatura Precipitaţii Vânt Presiune Umiditate
    00:00 +27°C° 1.2 mm 3 m/s 750 mmHg 97%
    01:00 +27°C° 1.2 mm 3 m/s 750 mmHg 97%
    02:00 +27°C° 1.1 mm 3 m/s 750 mmHg 97%
    03:00 +27°C° 1.1 mm 3 m/s 749 mmHg 97%
    04:00 +27°C° 1.1 mm 3 m/s 749 mmHg 98%
    05:00 +27°C° 0.5 mm 3 m/s 749 mmHg 95%
    06:00 +27°C° 0.5 mm 3 m/s 750 mmHg 93%
    07:00 +28°C° 0.5 mm 3 m/s 750 mmHg 91%
    08:00 +29°C° 0.2 mm 4 m/s 750 mmHg 84%
    09:00 +32°C° 0.2 mm 4 m/s 750 mmHg 78%
    10:00 +33°C° 0.2 mm 4 m/s 750 mmHg 71%
    11:00 +33°C° 1.4 mm 4 m/s 750 mmHg 71%
    12:00 +34°C° 1.4 mm 4 m/s 749 mmHg 70%
    13:00 +34°C° 1.4 mm 4 m/s 749 mmHg 70%
    14:00 +34°C° 0.8 mm 4 m/s 748 mmHg 71%
    15:00 +34°C° 0.8 mm 4 m/s 748 mmHg 72%
    16:00 +33°C° 0.8 mm 3 m/s 747 mmHg 73%
    17:00 +31°C° 0.1 mm 3 m/s 748 mmHg 78%
    18:00 +30°C° 0.1 mm 3 m/s 748 mmHg 83%
    19:00 +29°C° 0.1 mm 3 m/s 748 mmHg 88%
    20:00 +29°C° 0 mm 3 m/s 749 mmHg 90%
    21:00 +28°C° 0 mm 3 m/s 750 mmHg 91%
    22:00 +28°C° 0 mm 2 m/s 750 mmHg 93%
    23:00 +28°C° 0 mm 2 m/s 750 mmHg 94%

    13 Decembrie, Joi

    Timp Temperatura Precipitaţii Vânt Presiune Umiditate
    00:00 +28°C° 0 mm 3 m/s 749 mmHg 94%
    01:00 +28°C° 0 mm 3 m/s 748 mmHg 95%
    02:00 +27°C° 0.1 mm 2 m/s 748 mmHg 95%
    03:00 +27°C° 0.1 mm 2 m/s 748 mmHg 96%
    04:00 +27°C° 0.1 mm 2 m/s 748 mmHg 96%
    05:00 +28°C° 0.1 mm 2 m/s 748 mmHg 94%
    06:00 +28°C° 0.1 mm 2 m/s 749 mmHg 93%
    07:00 +28°C° 0.1 mm 1 m/s 749 mmHg 91%
    08:00 +30°C° 0 mm 1 m/s 750 mmHg 86%
    09:00 +31°C° 0 mm 1 m/s 750 mmHg 80%
    10:00 +32°C° 0 mm 1 m/s 750 mmHg 74%
    11:00 +32°C° 0.3 mm 2 m/s 749 mmHg 72%
    12:00 +34°C° 0.3 mm 2 m/s 748 mmHg 70%
    13:00 +34°C° 0.3 mm 2 m/s 748 mmHg 68%
    14:00 +34°C° 0.1 mm 3 m/s 747 mmHg 69%
    15:00 +34°C° 0.1 mm 3 m/s 747 mmHg 70%
    16:00 +34°C° 0.1 mm 4 m/s 746 mmHg 71%
    17:00 +32°C° 0 mm 4 m/s 747 mmHg 77%
    18:00 +30°C° 0 mm 4 m/s 747 mmHg 82%
    19:00 +29°C° 0 mm 4 m/s 747 mmHg 88%
    20:00 +29°C° 0 mm 4 m/s 747 mmHg 89%
    21:00 +29°C° 0 mm 4 m/s 747 mmHg 91%
    22:00 +28°C° 0 mm 4 m/s 747 mmHg 92%
    23:00 +28°C° 0.1 mm 4 m/s 747 mmHg 92%

    14 Decembrie, Vineri

    Timp Temperatura Precipitaţii Vânt Presiune Umiditate
    00:00 +28°C° 0.1 mm 3 m/s 747 mmHg 91%
    01:00 +28°C° 0.1 mm 3 m/s 747 mmHg 91%
    02:00 +28°C° 0.6 mm 3 m/s 746 mmHg 89%
    03:00 +28°C° 0.6 mm 3 m/s 746 mmHg 88%
    04:00 +27°C° 0.6 mm 2 m/s 746 mmHg 86%
    05:00 +28°C° 0.8 mm 3 m/s 746 mmHg 85%
    06:00 +28°C° 0.8 mm 3 m/s 747 mmHg 84%
    07:00 +28°C° 0.8 mm 3 m/s 747 mmHg 82%
    08:00 +29°C° 0.2 mm 3 m/s 747 mmHg 80%
    09:00 +29°C° 0.2 mm 3 m/s 747 mmHg 79%
    10:00 +30°C° 0.2 mm 3 m/s 747 mmHg 77%
    11:00 +30°C° 0.2 mm 3 m/s 747 mmHg 77%
    12:00 +30°C° 0.2 mm 3 m/s 747 mmHg 76%
    13:00 +30°C° 0.2 mm 3 m/s 747 mmHg 76%
    14:00 +29°C° 0.1 mm 2 m/s 746 mmHg 76%
    15:00 +29°C° 0.1 mm 2 m/s 746 mmHg 77%
    16:00 +29°C° 0.1 mm 1 m/s 745 mmHg 77%
    17:00 +28°C° 0.3 mm 2 m/s 746 mmHg 79%
    18:00 +28°C° 0.3 mm 2 m/s 746 mmHg 80%
    19:00 +28°C° 0.3 mm 2 m/s 747 mmHg 82%
    20:00 +27°C° 0.2 mm 3 m/s 747 mmHg 85%
    21:00 +27°C° 0.2 mm 3 m/s 747 mmHg 88%
    22:00 +27°C° 0.2 mm 3 m/s 747 mmHg 91%
    23:00 +27°C° 1.2 mm 3 m/s 747 mmHg 92%

    15 Decembrie, Sâmbătă

    Timp Temperatura Precipitaţii Vânt Presiune Umiditate
    00:00 +27°C° 1.2 mm 3 m/s 747 mmHg 94%
    01:00 +27°C° 1.2 mm 3 m/s 747 mmHg 95%
    02:00 +27°C° 1.2 mm 2 m/s 746 mmHg 96%
    03:00 +27°C° 1.2 mm 2 m/s 746 mmHg 96%
    04:00 +27°C° 1.2 mm 2 m/s 746 mmHg 96%
    05:00 +27°C° 1.9 mm 2 m/s 746 mmHg 96%
    06:00 +27°C° 1.9 mm 3 m/s 746 mmHg 96%
    07:00 +27°C° 1.9 mm 3 m/s 747 mmHg 96%
    08:00 +27°C° 1.9 mm 4 m/s 746 mmHg 93%
    09:00 +28°C° 1.9 mm 5 m/s 746 mmHg 91%
    10:00 +28°C° 1.9 mm 7 m/s 745 mmHg 88%
    11:00 +28°C° 2.1 mm 8 m/s 744 mmHg 89%
    12:00 +28°C° 2.1 mm 9 m/s 743 mmHg 90%
    13:00 +27°C° 2.1 mm 10 m/s 742 mmHg 91%
    14:00 +28°C° 6.7 mm 11 m/s 742 mmHg 92%
    15:00 +28°C° 6.7 mm 12 m/s 741 mmHg 93%
    16:00 +28°C° 6.7 mm 13 m/s 741 mmHg 94%
    17:00 +28°C° 8.8 mm 13 m/s 741 mmHg 94%
    18:00 +28°C° 8.8 mm 12 m/s 741 mmHg 94%
    19:00 +28°C° 8.8 mm 11 m/s 741 mmHg 95%
    20:00 +28°C° 1.5 mm 11 m/s 741 mmHg 94%
    21:00 +28°C° 1.5 mm 11 m/s 742 mmHg 94%
    22:00 +28°C° 1.5 mm 10 m/s 742 mmHg 94%
    23:00 +28°C° 0.1 mm 10 m/s 742 mmHg 94%
    Arată mai mult